Regional Weather Roundup
Issued by NWS Northern Indiana

Home | Current Version | Previous Version | Graphics & Text | Print | Product List | Glossary On
Versions: 1 2 3 4 5 6 7 8 9 10 11 12 13 14 15 16 17 18 19 20 21 22 23 24 25 26 27 28 29 30 31 32 33 34 35 36 37 38 39 40 41 42 43 44 45 46 47 48 49 50
000
ASUS43 KIWX 021100
RWRIWX

KIWX WEATHER ROUNDUP
NATIONAL WEATHER SERVICE NORTHERN INDIANA
700 AM EDT SUN AUG 02 2015

NOTE: "FAIR" INDICATES FEW OR NO CLOUDS BELOW 12,000 FEET WITH NO
SIGNIFICANT WEATHER AND/OR OBSTRUCTIONS TO VISIBILITY.

* THESE STATIONS ARE NOT UNDER NWS QUALITY CONTROL. THEY ALSO MAY NOT
  REPORT WEATHER SUCH AS PRECIPITATION OR FOG.

INZ001>027-021200-
NORTHERN INDIANA

CITY           SKY/WX    TMP DP  RH WIND       PRES   REMARKS
GARY*          PTCLDY    70  66  88 SW7       29.88F
LAPORTE*       CLEAR     65  65 100 CALM      29.91S
KNOX*          CLEAR     63  63 100 S6        29.90S
SOUTH BEND     CLEAR     66  62  87 SW3       29.91R
GOSHEN         CLEAR     65  62  90 SW8       29.91S
MONTICELLO*    CLEAR     64  63  96 S6        29.92S
LOGANSPORT*    CLEAR     61  55  82 S6        29.94S
WARSAW*        CLEAR     66  61  82 SW3       29.92S
ANGOLA*        CLEAR     68  63  83 W5        29.92R
FORT WAYNE     PTCLDY    64  60  87 SW6       29.94R

$$
INZ028>050-021200-
CENTRAL INDIANA

CITY           SKY/WX    TMP DP  RH WIND       PRES   REMARKS
LAFAYETTE      CLEAR     63  60  90 SW3       29.93R
KOKOMO*        CLEAR     64  57  77 SW5       29.95R
MUNCIE*        CLEAR     65  58  78 SW7       29.96R
INDIANAPOLIS   PTCLDY    64  58  80 SW7       29.95S

$$
MIZ043>046-050>051-056>058-064>065-071>073-077>080-021200-
SOUTHWEST LOWER MICHIGAN

CITY           SKY/WX    TMP DP  RH WIND       PRES   REMARKS
BATTLE CREEK   PTCLDY    66  62  87 S5        29.90R
BENTON HARBOR  CLEAR     72  66  81 SW8       29.87S
COLDWATER*     CLEAR     64  62  91 SW5       29.91R
HILLSDALE*     CLEAR     67  65  94 W5        29.91R
HOLLAND        MOCLDY    72  67  84 SW7       29.85F
GRAND RAPIDS   CLOUDY    67  63  87 S5        29.86S
KALAMAZOO      PTCLDY    66  62  87 S7        29.89S
STURGIS*       CLEAR     63  63 100 CALM      29.90S
THREE RIVERS*  FAIR      63  62  94 SW3       29.90S

$$
OHZ001>008-015>018-024>025-021200-
NORTHWEST OHIO

CITY           SKY/WX    TMP DP  RH WIND       PRES   REMARKS
DEFIANCE       CLEAR     66  61  84 SW5       29.92S
FINDLAY        CLEAR     67  59  75 SW8       29.92R
TOLEDO EXPRESS CLEAR     64  60  87 SW6       29.90S
TOLEDO METCALF CLEAR     65  60  84 SW8       29.91S
LIMA           CLEAR     66  58  75 SW8       29.95R

$$
AND FOR LAKE MICHIGAN COASTAL AND OPEN LAKE BUOY OBSERVATIONS

STATION/POSITION TEMP    WIND        PRES    VSBY  WAVE
                 AIR SEA DIR/SP/G                  HT/PER
                 (F)     (DEG/KT/KT) (MB)    (MI)  (FT/S)
CALUMET HARBOR    71     210/  5/  7   N/A
MICHIGAN CITY     71     180/ 10/ 11   N/A
BURNS HARBOR      72     210/ 10/ 13 1012.5S
SAINT JOSEPH      74     190/ 14/ 18 1011.9F
4 MI NW BRIDGMAN  73 73  250/ 14/ 17   N/A           3/ 3
MICHIGAN CITY     73 73  230/ 12/ 16   N/A           2/ 3

$$
&&



USA.gov is the U.S. government's official web portal to all federal, state and local government web resources and services.